Regional Weather Roundup
Issued by NWS

Home | Current Version | Previous Version | Graphics & Text | Print | Product List | Glossary On
Versions: 1 2 3 4 5 6 7 8 9 10 11 12 13 14 15 16 17 18 19 20 21 22 23 24 25 26 27 28 29 30 31 32 33 34 35 36 37 38 39 40 41 42 43 44 45 46 47 48 49 50
154
ASUS43 KMPX 061501
RWRMN
WEATHER ROUNDUP FOR MINNESOTA
NATIONAL WEATHER SERVICE TWIN CITIES/CHANHASSEN MN
900 AM CST SAT FEB 06 2016


NOTE: "FAIR" INDICATES FEW OR NO CLOUDS BELOW 12,000 FEET WITH NO
SIGNIFICANT WEATHER AND/OR OBSTRUCTIONS TO VISIBILITY. N/A MEANS
CURRENT SKY AND/OR WEATHER CONDITIONS ARE NOT AVAILABLE.

MNZ060>063-068>070-061600-
   Twin Cities Metro

CITY           SKY/WX    TMP DP  RH WIND       PRES   REMARKS
TWIN CITIES    CLOUDY    26  23  88 S9        30.10F WCI  17
ST PAUL        CLOUDY    26  23  88 S10       30.12F WCI  16
CRYSTAL        PTSUNNY   27  23  85 S12       30.08F FOG     WCI  17
BLAINE         MOSUNNY   28  27  93 S13       30.08F WCI  18
LAKEVILLE      CLOUDY    25  25 100 S9        30.10F WCI  15
EDEN PRAIRIE   CLOUDY    26  22  84 S13       30.09F FOG     WCI  15
SOUTH ST PAUL  CLOUDY    27  24  87 S9        30.10F WCI  18
LAKE ELMO      CLOUDY    27  25  93 S10       30.11F WCI  17
$$
MNZ001>005-007-008-013>017-022>024-027-028-061600-
   Northwest Minnesota

CITY           SKY/WX    TMP DP  RH WIND       PRES   REMARKS
BEMIDJI        CLOUDY    21  19  91 SE6       29.87F WCI  13
HALLOCK        CLOUDY    21  19  93 SE14      29.79F WCI   8
ROSEAU         CLOUDY    21  18  86 SE10      29.82F WCI  10
WARROAD        CLOUDY    19  16  86 E6        29.84F WCI  11
THIEF RVR FALL CLOUDY    25  19  80 S14       29.83F WCI  13
CROOKSTON      CLOUDY    25  21  86 S16       29.84F WCI  12
FOSSTON        CLOUDY    25  21  86 S15       29.84F WCI  12
DETROIT LAKES  MOSUNNY   27  25  93 S9        29.88F WCI  17
MOORHEAD       CLOUDY    25  21  86 S13       29.88F WCI  13
PARK RAPIDS    CLOUDY    23  20  88 S8        29.89F WCI  14
MAHNOMEN       CLOUDY    27  22  82 S13G21    29.86F WCI  16
$$
MNZ006-009>011-018-025>026-061600-
   North Central Minnesota

CITY           SKY/WX    TMP DP  RH WIND       PRES   REMARKS
BAUDETTE       CLOUDY    20  15  81 SE8       29.86F WCI  10
FLAG ISLAND    CLOUDY    19  16  86 SE6       29.85F WCI  11
INTL FALLS     CLOUDY    19  16  88 SE6       29.91F FOG     WCI  11
WASKISH        CLOUDY    21  19  93 SE5       29.87F WCI  15
LONGVILLE      CLOUDY    21  19  93 SE7       29.94F WCI  13
GRAND RAPIDS   CLOUDY    19  18  93 S12       29.94F WCI   7
CRANE LAKE     CLOUDY    16  12  86 CALM      29.97F
ORR            CLOUDY    18  14  86 CALM      29.91S
COOK           CLOUDY    19  18  93 S2        29.94F
WALKER         PTSUNNY   22  19  87 SE6       29.91F WCI  14
$$
MNZ012-019>021-037-061600-
   Northeast Minnesota

CITY           SKY/WX    TMP DP  RH WIND       PRES   REMARKS
DULUTH         CLOUDY    20  17  88 SW9       29.98F WCI   9
ELY            CLOUDY    16  16 100 CALM      29.95S
HIBBING        CLOUDY    18  17  96 S3        29.95F
EVELETH        CLOUDY    21  19  93 CALM      29.97F
DULUTH HARBOR  CLOUDY    23  19  86 SW7       30.04F WCI  15
TWO HARBORS    CLOUDY    21  16  79 W3        29.98F
SILVER BAY     CLOUDY    19  16  86 CALM      29.98F
GRAND MARAIS     N/A     25  17  72 W3        30.03S
G MARAIS ARPRT CLOUDY    18  12  79 W5        29.95S WCI  11
$$
MNZ029>031-032-039>041-046>048-054>057-064-061600-
   West Central Minnesota

CITY           SKY/WX    TMP DP  RH WIND       PRES   REMARKS
FERGUS FALLS   CLOUDY    25  23  93 S10       29.96S WCI  15
WHEATON        CLOUDY    32  27  80 S10       29.95F WCI  24
MORRIS         CLOUDY    23  21  93 S9        29.95F WCI  13
ALEXANDRIA     FLURRIES  25  21  85 S14       29.95F WCI  13
ELBOW LAKE     PTSUNNY   23  22  98 S13       29.94F WCI  11
WADENA         CLOUDY    25  21  86 S8        29.91F WCI  16
GLENWOOD       CLOUDY    25  23  93 S7        29.97F WCI  17
APPLETON       CLOUDY    28  23  80 S10       29.98F WCI  19
BENSON         CLOUDY    25  21  86 CALM      29.99F
ORTONVILLE     CLOUDY    32  23  69 SW6       29.96F WCI  26
MADISON        MOSUNNY   32  23  69 SW10      29.99S WCI  24
WILLMAR        FAIR      25  21  86 S5        30.02F WCI  19
$$
MNZ033>034-036-042>043-049>051-058-059-061600-
   Central Minnesota

CITY           SKY/WX    TMP DP  RH WIND       PRES   REMARKS
ST CLOUD       CLOUDY    23  20  88 S10       30.01F WCI  12
SAUK CENTRE    FAIR      23  20  89 S7        29.98F WCI  15
PAYNESVILLE    CLOUDY    22  21  96 S5        30.01F WCI  16
AITKIN         CLOUDY    25  19  80 S8        29.96F HAZE    WCI  16
PINE RIVER     CLOUDY    21  21 100 SE6       29.97F FOG     WCI  14
BRAINERD       CLOUDY    23  21  92 S12       29.96F FOG     WCI  12
STAPLES        CLOUDY    23  21  93 S10       29.93F WCI  12
LONG PRAIRIE   PTSUNNY   21  19  93 SE6       29.97F WCI  14
LITTLE FALLS   CLOUDY    25  21  86 S6        29.99F WCI  18
LITCHFIELD     CLOUDY    21  21 100 CALM      30.03F
BUFFALO        MOSUNNY   23  21  91 S7        30.06F WCI  15
MAPLE LAKE     CLOUDY    23  22  96 S8        30.05F WCI  14
$$
MNZ037-044-045-052-053-061600-
   East Central Minnesota

CITY           SKY/WX    TMP DP  RH WIND       PRES   REMARKS
PRINCETON      MOSUNNY   27  23  86 S9        30.02F WCI  17
MORA           CLOUDY    27  23  86 SE5       30.06S WCI  21
CAMBRIDGE      MOSUNNY   27  19  74 S9        30.04F WCI  17
RUSH CITY      CLOUDY    25  22  89 S9        30.06F WCI  16
MOOSE LAKE     CLOUDY    23  21  93 S6        30.00F WCI  16
HINCKLEY       CLOUDY    27  25  93 S10       30.05F FOG     WCI  17
CLOQUET        CLOUDY    21  19  93 S8        29.99F WCI  12
MCGREGOR       CLOUDY    23  21  93 S6        29.99F WCI  16
$$
MNZ071>073-080-081-089-090-097-098-061600-
   Southwest Minnesota

CITY           SKY/WX    TMP DP  RH WIND       PRES   REMARKS
MONTEVIDEO     CLOUDY    28  25  86 SW10      30.02F WCI  19
GRANITE FALLS  CLOUDY    30  25  81 S12       30.03F WCI  20
CANBY          MOSUNNY   34  27  73 SW17      30.00F WCI  24
MARSHALL       MOSUNNY   34  24  67 SW21G26   30.01F WCI  22
REDWOOD FALLS  CLOUDY    23  20  88 S12       30.04F WCI  12
OLIVIA         MOSUNNY   23  21  93 S8        30.03F WCI  14
PIPESTONE      MOSUNNY   23  18  80 SW6       30.04F WCI  16
WINDOM         CLOUDY    23  21  93 S7        30.08F WCI  15
WORTHINGTON    CLOUDY    21  18  86 SW12      30.08F WCI   9
JACKSON        CLOUDY    27  23  86 SW9       30.10F FOG     WCI  17
TRACY          CLOUDY    28  23  79 SW21      30.03F WCI  15
SLAYTON        CLOUDY    22  22 100 SW12      30.05F WCI  11
$$
MNZ065>067-074>077-082>085-091>093-061600-
   South Central Minnesota

CITY           SKY/WX    TMP DP  RH WIND       PRES   REMARKS
MANKATO        CLOUDY    25  21  86 S9        30.11F VSB 1   WCI  15
NEW ULM        SUNNY     21  19  93 S9        30.08F FOG     WCI  11
ST JAMES       SUNNY     25  25 100 S12       30.10F WCI  14
FAIRMONT       CLOUDY    25  21  86 SW12      30.11F WCI  14
GLENCOE        CLOUDY    20  20  98 S8        30.07F FOG     WCI  11
FARIBAULT      LGT SNOW  27  25  93 S8        30.11F WCI  18
OWATONNA       LGT SNOW  25  23  93 SW17      30.12F WCI  11
WASECA         LGT SNOW  25  23  93 S16       30.14F VSB 1   WCI  12
ALBERT LEA     FOG       25  25 100 S10       30.14S VSB 1/4 WCI  15
$$
MNZ078>079-086>088-094>096-061600-
   Southeast Minnesota

CITY           SKY/WX    TMP DP  RH WIND       PRES   REMARKS
ROCHESTER      CLOUDY    24  22  91 SW12      30.13S FOG     WCI  13
RED WING       CLOUDY    27  21  80 SW5       30.13F WCI  21
STANTON        LGT SNOW  28  24  88 SW9       30.11F WCI  19
DODGE CENTER   CLOUDY    25  23  93 SW14      30.12F FOG     WCI  13
WINONA         CLOUDY    30  25  80 W6        30.17S WCI  24
AUSTIN         CLOUDY    25  23  93 SW8       30.14F FOG     WCI  16
PRESTON        CLOUDY    24  22  89 SW7       30.14F FOG     WCI  16
$$
ABBREVIATIONS USED IN REMARKS
   TC - TEMPERATURES IN CELSIUS
  WCI - WIND CHILL INDEX
   HX - HEAT INDEX
  VSB - VISIBILITY
$$




USA.gov is the U.S. government's official web portal to all federal, state and local government web resources and services.